Change the Weather History Date:

Tuesday, April 29, 2014

  Actual Average Record
Temperature  
Mean Temperature 50 °F -  
Max Temperature 59 °F 58 °F 78 °F (2004)
Min Temperature 41 °F 38 °F 28 °F (2001)
Degree Days  
Heating Degree Days 15    
Moisture  
Dew Point 34 °F    
Average Humidity 59    
Maximum Humidity 81    
Minimum Humidity 31    
Precipitation  
Precipitation 0.00 in - - ()
Sea Level Pressure  
Sea Level Pressure 30.34 in    
Wind  
Wind Speed 12 mph ()    
Max Wind Speed 22 mph    
Max Gust Speed 30 mph    
Averages and records for this station are not official NWS values.
T = Trace of Precipitation, MM = Missing Value Source: Averaged Metar Reports

Daily Weather History Graph

Daily Weather History Graph

Search for Another Location

Airport or City:

Trip Planner

Search our weather history database for the weather conditions in past years. The results will help you decide how hot, cold, wet, or windy it might be!

Date:

Astronomy

Apr. 29, 2014 Rise Set
Actual Time 5:46 AM EDT 8:00 PM EDT
Civil Twilight 5:14 AM EDT 8:33 PM EDT
Nautical Twilight 4:34 AM EDT 9:14 PM EDT
Astronomical Twilight 3:48 AM EDT 9:59 PM EDT
Moon 6:03 AM EDT (4/29) 8:39 PM EDT (4/29)
Length of Visible Light 15h 19m
Length of Day
14h 13m
New Moon, 0% of the Moon is Illuminated
Apr 29
New Moon
May 6
First Quarter
May 14
Full
May 21
Last Quarter
May 28
New

Hourly Weather History & Observations

Time (EDT) Temp. Windchill Dew Point Humidity Pressure Visibility Wind Dir Wind Speed Gust Speed Precip Events Conditions
12:00 AM 42.8 °F 36.6 °F 33.8 °F 70% 30.27 in 25.0 mi ENE 11.5 mph 20.7 mph N/A   Overcast
1:00 AM 41.0 °F 34.3 °F 35.6 °F 81% 30.26 in 25.0 mi ENE 11.5 mph 21.9 mph N/A   Mostly Cloudy
2:00 AM 41.0 °F 34.3 °F 35.6 °F 81% 30.27 in 25.0 mi ENE 11.5 mph 21.9 mph N/A   Mostly Cloudy
3:00 AM 41.0 °F 33.9 °F 35.6 °F 81% 30.27 in 25.0 mi ENE 12.7 mph 18.4 mph N/A   Overcast
4:00 AM 41.0 °F 35.2 °F 35.6 °F 81% 30.31 in 25.0 mi ENE 9.2 mph - N/A   Overcast
5:00 AM 41.0 °F 35.8 °F 35.6 °F 81% 30.32 in 25.0 mi NE 8.1 mph - N/A   Overcast
6:00 AM 41.0 °F 34.3 °F 35.6 °F 81% 30.34 in 45.0 mi ENE 11.5 mph - N/A   Overcast
7:00 AM 42.8 °F 36.6 °F 35.6 °F 76% 30.36 in 45.0 mi ENE 11.5 mph 23.0 mph N/A   Overcast
8:00 AM 44.6 °F 37.8 °F 33.8 °F 66% 30.37 in 45.0 mi ENE 15.0 mph 24.2 mph N/A   Mostly Cloudy
9:00 AM 46.4 °F 40.1 °F 33.8 °F 62% 30.38 in 45.0 mi ENE 15.0 mph 26.5 mph N/A   Mostly Cloudy
10:00 AM 46.4 °F 40.1 °F 33.8 °F 62% 30.38 in 45.0 mi ENE 15.0 mph 29.9 mph N/A   Mostly Cloudy
11:00 AM 50.0 °F - 33.8 °F 54% 30.38 in 45.0 mi ENE 17.3 mph 25.3 mph N/A   Mostly Cloudy
12:00 PM 51.8 °F - 33.8 °F 50% 30.37 in 45.0 mi ENE 16.1 mph 26.5 mph N/A   Mostly Cloudy
1:00 PM 53.6 °F - 33.8 °F 47% 30.36 in 45.0 mi ENE 17.3 mph 29.9 mph N/A   Mostly Cloudy
2:00 PM 55.4 °F - 33.8 °F 44% 30.36 in 45.0 mi ENE 16.1 mph 26.5 mph N/A   Overcast
3:00 PM 57.2 °F - 32.0 °F 38% 30.33 in 45.0 mi East 18.4 mph 25.3 mph N/A   Overcast
4:00 PM 59.0 °F - 32.0 °F 36% 30.30 in 45.0 mi East 15.0 mph 25.3 mph N/A   Overcast
5:00 PM 59.0 °F - 30.2 °F 34% 30.30 in 45.0 mi East 21.9 mph - N/A   Overcast
6:00 PM 59.0 °F - 30.2 °F 34% 30.30 in 45.0 mi East 13.8 mph 19.6 mph N/A   Overcast
7:00 PM 59.0 °F - 28.4 °F 31% 30.31 in 45.0 mi East 13.8 mph - N/A   Overcast
8:00 PM 57.2 °F - 28.4 °F 33% 30.34 in 25.0 mi SE 12.7 mph - N/A   Overcast
9:00 PM 53.6 °F - 30.2 °F 41% 30.38 in 25.0 mi South 11.5 mph 25.3 mph N/A   Overcast
9:12 PM 51.8 °F - 33.8 °F 50% 30.39 in 25.0 mi South 15.0 mph - N/A Rain Light Rain Showers
10:00 PM 46.4 °F 41.9 °F 39.2 °F 76% 30.42 in 25.0 mi SSE 9.2 mph - N/A Rain Light Rain Showers
11:00 PM 44.6 °F 40.2 °F 39.2 °F 81% 30.42 in 25.0 mi SSE 8.1 mph - N/A Rain Light Rain